Theta_e
316 317 317 318 318 317 315 311 309 309 308 308 308 307 307 307 308 308 311 309 310 312 314 311 312 313 313 311 310 308 310 311 313 312 314 309 313 309 310 311 312 313 315 318 332
316 316 317 317 317 317 313 311 309 308 308 307 307 307 307 308 308 311 308 310 313 312 312 311 310 311 309 311 309 310 310 311 310 310 312 310 313 311 314 313 314 316 318 324 335
316 316 317 317 318 316 313 311 309 308 308 307 307 307 307 308 313 309 311 311 314 311 311 311 311 311 311 310 310 309 312 310 309 310 311 311 312 310 311 313 310 313 316 324 332
316 315 316 316 318 316 312 309 308 308 307 307 307 307 308 310 306 313 314 313 313 311 311 311 309 310 310 311 309 311 309 308 310 310 310 311 309 311 309 312 309 308 316 324 330
315 315 315 316 316 316 311 309 308 307 307 307 307 308 310 310 308 312 313 313 311 310 311 309 310 309 311 310 309 309 309 308 309 309 309 310 310 310 308 306 306 308 318 324 329
315 315 315 315 315 315 312 310 308 307 307 307 308 309 312 306 309 312 312 312 311 310 310 309 309 308 309 310 310 309 309 309 309 309 309 310 308 309 307 306 307 312 316 320 325
315 315 314 315 315 314 311 311 310 307 307 307 308 311 312 305 311 310 311 311 311 311 309 310 310 310 308 309 309 309 311 309 309 309 310 309 308 309 306 306 307 305 308 316 319
315 315 314 315 315 312 311 311 309 309 309 309 309 312 306 309 312 311 310 311 311 312 312 311 311 310 309 308 307 309 306 309 307 309 309 308 306 306 307 305 305 304 301 305 312
315 316 315 315 313 311 311 311 311 310 311 311 311 309 305 311 311 311 310 310 311 311 311 311 309 308 308 308 307 306 307 308 307 307 310 307 307 307 307 306 307 304 302 301 301
315 315 315 314 313 311 311 311 311 312 313 314 314 310 307 308 312 311 310 311 310 309 310 309 306 307 304 306 307 309 308 307 307 309 310 310 308 307 306 307 306 304 303 303 302
315 315 315 314 313 311 311 314 311 310 315 307 309 305 307 311 310 310 310 309 307 307 309 307 309 309 308 307 306 307 307 308 307 308 310 308 307 308 306 306 305 305 304 304 303
318 314 314 313 312 312 312 311 307 307 311 311 312 311 311 311 311 310 310 308 308 307 307 308 308 307 306 305 306 306 308 308 307 309 310 308 308 307 306 306 306 306 305 304 304
317 315 313 313 312 313 314 313 314 316 309 309 312 311 311 311 310 310 307 307 306 306 306 307 308 305 307 306 307 306 305 306 307 307 306 305 305 306 305 305 304 304 303 303 303
317 316 314 313 313 313 313 311 317 315 308 310 312 309 311 310 311 309 308 308 307 306 304 306 306 306 307 306 305 306 304 306 308 308 308 305 305 304 304 304 304 303 303 301 300
317 316 314 313 313 313 311 309 316 309 310 308 313 309 309 309 309 310 308 308 307 306 306 306 307 307 307 307 305 306 305 307 308 307 308 307 307 304 305 307 306 305 302 302 303
318 317 315 313 312 312 310 311 310 312 309 309 313 311 311 309 311 309 310 308 306 307 308 305 306 306 306 306 306 306 306 305 305 305 308 306 305 304 304 305 306 306 305 303 304
317 317 315 313 313 311 308 311 313 315 309 315 315 311 310 311 312 310 311 310 309 309 309 310 311 309 307 308 308 306 307 308 308 309 309 304 305 306 305 303 303 303 302 302 304
314 317 315 314 313 309 310 312 315 306 309 314 314 311 311 311 312 311 310 311 308 306 308 309 311 310 308 307 308 306 306 309 308 309 307 305 307 307 304 305 305 308 306 305 305
311 313 315 314 312 311 312 314 313 307 313 316 313 312 312 311 312 312 309 310 309 306 308 309 308 309 308 307 308 309 309 306 306 295 307 307 306 305 307 307 310 308 307 305 305
306 308 310 312 311 310 313 314 312 313 315 314 316 313 314 312 313 312 311 309 309 307 306 308 309 310 309 309 309 308 307 309 307 306 308 306 306 307 309 308 311 309 307 305 305
305 310 308 312 311 312 312 313 312 313 316 317 318 316 314 314 313 313 313 310 308 308 308 307 308 311 309 309 309 309 309 308 308 308 311 308 306 302 304 309 309 309 308 307 305
303 309 307 309 306 302 308 312 314 315 316 316 316 318 315 314 314 313 312 310 309 308 311 309 310 312 311 309 309 310 308 309 309 308 307 307 309 308 307 307 307 309 308 306 305
303 305 307 306 308 308 309 312 314 316 317 317 316 315 316 316 317 314 312 313 311 310 311 311 312 312 313 309 310 311 309 308 308 308 308 308 310 307 307 308 309 311 308 305 305
298 306 305 308 306 309 311 314 315 314 315 316 315 315 316 318 317 317 317 315 313 314 314 311 309 313 315 311 312 314 311 309 311 312 311 309 311 310 308 309 310 309 307 306 303
296 299 299 307 308 309 310 313 314 315 313 315 314 316 316 318 317 317 317 316 314 314 315 314 312 311 312 311 311 310 309 311 312 311 311 311 308 309 308 310 307 307 308 304 304
297 297 296 300 306 307 310 310 314 313 314 315 314 313 315 316 316 317 316 316 317 314 316 314 315 315 316 314 314 316 314 311 310 310 310 310 310 307 308 307 307 308 306 305 304
297 296 295 297 302 307 307 307 310 312 310 310 312 313 315 314 311 310 310 312 312 313 314 313 311 314 319 314 314 315 316 315 312 311 311 312 311 310 310 309 307 305 304 303 301
Wind_Speed
17 17 15 15 14 13 14 15 14 13 11 9 7 5 3 3 6 7 5 7 5 6 7 5 5 4 4 3 3 3 4 2 4 6 3 4 4 2 1 4 2 4 5 2 21
18 18 16 15 15 13 14 13 13 12 10 8 7 5 4 3 4 8 11 7 7 6 7 8 3 4 3 2 3 4 4 8 4 3 4 6 3 7 2 1 3 3 2 7 26
20 20 18 16 14 15 15 15 14 12 10 9 7 5 3 1 2 5 4 10 8 8 4 7 7 3 3 2 1 3 5 4 3 3 3 6 2 5 7 4 7 9 6 11 17
22 21 18 17 15 16 16 15 13 12 10 8 7 5 3 2 5 1 2 10 8 8 7 7 4 4 3 5 2 2 2 4 2 2 3 6 6 3 7 6 4 8 5 11 12
22 21 19 18 16 15 15 14 13 12 10 8 6 4 4 2 6 1 3 8 8 8 6 4 4 4 4 4 3 2 3 3 1 1 2 2 2 4 7 8 5 3 8 12 14
22 21 20 19 17 16 15 14 13 11 10 8 5 4 1 3 2 3 5 9 7 8 5 4 6 5 4 3 4 2 2 1 1 1 2 0 1 1 4 2 3 3 8 9 11
24 21 22 20 17 16 14 13 11 10 8 7 4 3 1 9 2 5 7 6 6 7 4 4 5 3 5 4 1 2 4 2 2 1 1 2 6 8 5 3 3 7 7 7 11
25 22 22 21 20 17 14 11 9 7 6 6 6 4 5 4 6 6 8 7 6 4 2 4 4 5 3 4 6 4 5 2 4 2 1 3 8 4 3 4 9 7 8 7 9
23 24 24 23 21 18 15 11 8 7 5 5 5 5 6 2 5 8 9 8 9 5 6 6 4 3 4 6 4 6 3 3 7 4 1 3 7 4 2 4 4 5 7 8 9
25 26 23 22 22 19 15 11 8 6 6 5 2 3 2 5 4 9 8 13 4 5 4 6 5 3 3 4 6 5 4 2 4 1 0 1 11 8 7 4 7 7 8 8 9
26 26 25 25 23 23 22 13 4 1 3 6 6 4 2 2 5 5 7 7 3 6 5 2 3 6 6 5 2 5 3 4 2 1 2 6 8 14 7 6 9 9 10 10 11
29 28 27 26 24 24 26 5 6 5 4 10 2 3 2 4 4 1 11 6 4 5 6 4 5 7 6 6 4 4 3 2 3 1 3 5 10 12 9 8 8 9 10 11 8
31 32 31 29 26 23 20 10 6 3 2 4 6 4 4 6 5 9 8 5 5 6 6 7 3 7 7 5 6 3 5 4 6 3 2 6 8 7 5 4 6 9 10 9 12
34 37 34 31 19 18 10 20 5 2 3 4 6 8 5 6 4 4 11 5 2 9 8 4 3 6 4 5 6 6 8 5 3 3 3 2 6 6 5 8 7 11 10 9 8
30 36 39 40 20 16 11 25 4 2 2 5 5 5 7 8 7 3 5 4 9 7 7 6 9 6 5 7 8 6 6 6 3 3 1 3 2 7 3 5 10 9 7 7 6
34 48 44 30 18 18 20 14 7 4 8 5 6 8 8 4 2 4 4 4 5 5 1 4 1 4 7 3 5 10 7 7 4 2 3 7 7 5 4 7 4 2 4 7 8
28 42 48 32 12 32 40 9 4 6 3 7 6 6 11 7 5 5 8 7 7 5 4 2 2 2 4 7 5 3 7 2 2 1 6 3 3 5 6 10 6 8 9 8 6
16 44 37 29 30 45 33 4 5 6 8 3 5 9 7 7 4 5 10 10 7 4 4 7 4 8 5 7 9 7 8 6 8 4 3 2 7 6 8 4 5 3 5 6 6
12 10 18 17 47 44 14 8 11 7 8 8 6 6 5 5 6 5 9 14 14 10 8 7 5 1 2 5 10 6 7 5 7 2 3 5 7 8 7 4 2 4 3 4 3
3 3 4 15 42 30 12 13 6 4 5 6 7 7 8 9 6 9 10 6 6 10 2 7 3 1 3 4 2 7 8 3 2 3 3 5 6 7 2 6 3 4 5 5 5
3 2 2 13 17 12 10 8 3 4 2 5 5 6 7 8 8 8 9 3 8 8 6 6 4 1 4 7 9 3 4 2 4 5 6 2 7 7 8 6 7 4 2 4 5
1 2 2 2 3 2 4 7 3 4 2 1 2 3 6 9 7 9 12 5 6 11 14 6 4 4 7 1 1 3 10 7 5 5 3 3 12 3 4 7 7 5 3 4 3
2 0 3 6 4 3 2 4 3 5 6 2 2 1 2 5 5 5 6 0 5 7 12 10 2 2 6 2 3 4 4 4 5 3 8 5 13 3 3 3 1 1 3 3 3
1 2 2 2 3 4 4 6 6 1 4 5 4 4 3 3 1 6 4 2 1 2 4 5 5 10 14 3 7 6 6 9 7 3 9 14 4 4 7 7 5 4 3 2 2
2 1 1 3 4 5 6 7 6 6 3 3 1 6 8 5 5 4 5 4 2 3 3 4 6 7 3 5 3 2 3 9 16 21 11 25 16 9 13 13 9 5 2 4 4
2 1 2 1 3 5 10 9 5 4 6 4 5 8 6 5 5 6 5 4 3 4 5 2 3 4 6 6 4 4 8 7 11 13 20 15 19 5 13 4 6 7 7 6 5
1 1 1 2 0 7 4 4 8 7 3 4 7 3 10 5 3 4 4 5 7 7 5 7 5 4 4 8 8 5 27 19 7 10 12 18 19 7 5 8 7 6 6 7 6
Wind_Direction
206 211 208 210 208 213 206 202 198 206 216 211 222 238 241 262 290 291 254 237 244 230 184 164 136 119 80 72 65 119 65 169 202 155 215 141 157 149 268 123 249 197 148 296 161
209 213 213 218 205 212 207 208 202 198 210 210 210 221 248 277 284 231 236 251 237 199 186 158 132 111 66 57 33 87 121 211 201 200 185 174 159 162 143 134 250 277 130 145 158
211 216 211 213 209 205 208 205 200 198 209 212 211 208 224 280 45 253 246 216 203 186 208 138 131 82 94 79 136 143 186 202 226 175 156 156 162 153 127 250 223 206 173 161 160
211 214 213 208 209 207 206 207 205 200 204 213 215 206 200 153 196 341 209 186 196 185 163 126 84 101 107 151 161 151 208 172 167 147 123 153 131 197 179 213 296 235 170 167 171
212 213 209 207 206 211 204 207 207 206 199 214 210 195 163 95 246 279 163 183 178 178 183 143 141 128 163 140 124 176 198 167 22 66 86 114 174 217 251 249 284 82 163 181 189
212 214 208 206 203 205 205 205 206 206 202 205 203 188 175 215 206 186 160 174 184 173 171 165 171 167 116 137 163 192 105 94 90 10 345 250 242 128 248 312 183 185 211 201 198
208 206 205 202 199 205 204 204 200 203 203 199 186 189 20 234 227 165 156 170 185 168 151 194 147 114 132 127 108 88 117 2 237 173 271 159 303 236 236 357 213 234 237 226 234
205 204 205 202 195 195 202 201 198 196 192 192 172 168 239 229 203 180 157 134 143 143 135 167 141 97 92 133 36 68 52 86 316 144 287 130 267 269 346 193 240 233 246 240 240
205 206 206 206 193 186 189 184 181 177 187 175 157 145 257 189 189 187 173 147 134 119 107 121 79 93 50 99 42 16 176 179 312 223 130 151 265 270 103 85 294 257 250 247 258
206 207 203 203 189 178 172 165 154 147 159 135 114 116 227 220 171 163 155 146 127 114 63 53 53 87 47 107 202 173 182 204 233 249 184 203 266 272 275 294 272 277 271 259 249
209 206 200 197 188 169 154 132 78 357 242 187 201 193 174 126 124 169 150 112 90 70 141 1 132 196 186 177 142 126 135 177 225 287 203 233 265 277 283 286 272 264 261 257 246
210 205 201 194 184 172 164 167 190 166 189 236 278 280 184 169 103 243 163 127 129 154 126 69 222 199 132 133 116 117 132 227 289 38 157 329 274 271 267 255 238 242 253 246 264
216 202 196 191 175 175 183 179 164 148 154 211 190 187 189 153 199 193 151 134 128 138 177 159 208 150 139 141 143 158 164 188 223 354 66 334 283 265 292 264 276 263 250 265 246
214 197 192 178 164 176 206 175 131 120 48 230 202 240 153 149 245 166 175 133 121 170 139 207 144 131 125 173 135 191 200 165 173 94 237 18 285 293 273 299 300 281 266 267 292
193 187 188 178 154 174 196 180 144 78 211 209 173 146 150 165 138 236 175 56 156 165 132 230 160 143 173 188 168 217 134 150 105 117 51 321 331 270 347 292 268 266 309 316 321
203 189 185 177 160 162 141 140 81 77 235 206 149 169 135 159 101 110 141 62 136 113 65 158 186 160 189 98 146 147 79 53 61 93 287 199 176 257 211 218 276 268 349 336 329
207 195 179 173 159 148 137 124 134 196 177 191 181 166 167 159 123 152 162 165 156 126 177 105 198 185 139 88 40 92 97 18 345 3 232 338 166 244 241 240 228 285 308 317 337
169 190 173 171 166 152 144 135 182 193 204 129 129 134 186 134 186 148 142 186 244 145 130 160 227 166 183 167 163 185 159 164 197 199 242 58 233 254 236 324 276 296 313 322 345
138 154 168 159 167 153 153 195 207 195 154 136 77 139 189 211 137 138 194 197 196 184 166 165 240 63 167 146 146 207 212 169 105 36 64 215 283 291 264 225 54 2 359 352 274
77 142 78 157 160 156 172 201 203 179 128 154 154 170 172 179 147 186 169 191 206 181 222 198 122 343 151 110 25 162 155 78 4 139 245 264 274 226 152 198 123 22 15 356 16
13 76 37 146 143 162 195 202 187 196 157 170 164 157 174 173 166 190 201 237 190 181 151 146 116 311 118 211 163 135 182 137 136 168 187 231 247 208 212 155 145 132 83 59 42
42 126 4 175 90 149 160 164 158 175 130 152 96 100 158 163 162 193 204 215 173 146 188 186 136 160 199 278 295 310 200 161 163 224 246 167 257 7 183 155 142 137 75 60 55
81 65 10 92 133 173 167 149 189 164 168 163 169 116 88 163 165 165 167 311 162 155 168 162 196 67 343 350 3 216 191 153 110 91 204 151 253 360 126 165 199 154 349 357 358
96 136 12 128 160 138 153 166 166 225 132 188 157 115 110 181 7 168 139 94 130 93 54 123 131 199 217 212 145 196 200 193 171 171 223 233 219 210 216 208 222 249 249 308 82
31 177 353 172 192 162 172 173 157 176 156 207 6 173 165 184 145 166 180 140 127 127 69 122 196 185 168 140 101 145 167 192 202 222 196 250 234 194 202 203 208 225 168 132 110
132 139 13 24 177 137 178 191 185 145 178 163 189 208 208 158 174 161 141 165 162 153 140 131 227 194 239 206 190 277 246 208 243 239 242 255 254 174 207 138 171 205 172 161 139
138 79 90 320 181 183 196 171 191 164 172 152 175 118 217 211 126 107 100 138 151 150 156 156 152 148 226 170 165 240 228 228 224 215 225 233 248 168 177 196 207 195 165 155 137